CAPE
0 0 0 0 0 0 0 0 0 0 0 0 0 0 0 0 0 0 0 0 0 0 0 0 0 0 0 0 0 0 0 0 0 0 0 0 0 0 0 0 0 0 0 0 0
0 0 0 0 0 0 0 0 0 0 0 0 0 0 0 0 0 0 0 0 0 0 0 0 0 0 0 0 0 0 0 0 0 0 0 0 0 0 0 0 0 0 0 0 0
0 0 0 0 0 0 0 0 0 0 0 0 0 0 0 0 0 0 0 0 0 0 0 0 0 0 0 0 0 0 0 0 0 0 0 0 0 0 0 0 0 0 0 0 0
0 0 0 0 0 0 0 0 0 0 0 0 0 0 0 0 0 0 0 0 0 0 0 0 0 0 0 2 0 0 0 0 0 0 0 0 0 0 0 0 0 0 0 0 0
0 0 0 0 0 0 0 0 0 0 0 0 0 0 0 0 0 0 0 0 0 0 0 0 0 0 0 0 0 0 0 0 0 0 0 0 0 0 0 0 0 0 0 0 0
0 0 0 0 0 0 0 0 0 0 0 0 0 0 0 0 0 0 0 0 0 0 0 0 0 0 0 0 0 0 0 0 0 0 0 0 0 0 0 0 0 0 0 0 0
0 0 0 0 0 0 0 0 0 0 0 0 0 0 0 0 0 0 0 0 0 0 0 0 0 0 0 0 0 0 0 0 0 0 0 0 0 0 0 0 0 0 0 0 0
0 0 0 0 0 0 0 0 0 0 0 0 0 0 0 0 0 0 0 0 0 0 0 0 0 0 0 0 0 0 0 0 0 0 0 0 0 0 0 0 0 0 0 0 0
0 0 0 0 0 0 0 0 0 0 0 0 0 0 0 0 0 0 0 0 0 0 0 0 0 0 0 0 0 0 0 0 0 0 0 0 0 0 0 0 0 0 0 0 0
0 0 0 0 0 0 0 0 0 0 0 0 0 0 0 0 0 0 0 0 0 0 0 0 0 0 0 0 0 0 0 0 0 0 0 0 0 0 0 0 0 0 0 0 0
0 0 0 0 0 0 0 0 0 0 0 0 0 0 0 0 0 0 0 0 0 0 0 0 0 0 0 0 0 0 0 0 0 0 0 0 0 0 0 0 0 0 0 0 0
0 0 0 0 0 0 0 0 0 0 0 0 0 0 0 0 0 0 0 0 0 0 0 0 0 0 0 0 0 0 0 0 0 0 0 0 0 0 0 0 0 0 0 0 0
0 0 0 0 0 0 0 0 0 0 0 0 0 0 0 0 0 0 0 0 0 0 0 0 0 0 0 0 0 0 0 0 0 0 0 0 0 0 0 0 0 0 0 0 0
0 0 0 0 0 0 0 0 0 0 0 0 0 0 0 0 0 0 0 0 0 0 0 0 0 0 0 0 0 0 0 0 0 0 0 0 0 0 0 0 0 0 0 0 0
1 0 0 0 0 0 0 0 0 0 0 0 0 0 0 0 0 0 0 0 0 0 0 0 0 0 0 0 0 0 0 0 0 0 0 0 0 0 0 0 0 0 0 0 0
0 0 0 0 0 0 0 0 0 0 0 0 0 0 0 0 0 0 0 0 0 0 0 0 0 0 0 0 0 0 0 0 0 0 0 0 0 0 0 0 0 0 0 0 0
0 0 0 0 0 0 0 0 0 0 0 0 0 0 0 0 0 0 0 0 0 0 0 0 0 0 0 0 0 0 0 0 0 0 0 0 0 0 0 0 0 0 0 0 0
0 0 0 0 0 0 0 0 0 0 0 0 0 0 0 0 0 0 0 0 0 0 0 0 0 0 0 0 0 0 0 0 0 0 0 0 0 0 0 0 0 0 0 0 0
0 1 0 0 0 0 0 0 0 0 0 0 0 0 0 0 0 0 0 0 0 0 0 0 0 0 0 0 0 0 0 0 0 0 0 0 0 0 0 0 0 0 0 0 0
1 0 0 0 0 0 0 0 0 0 0 0 0 0 0 0 0 0 0 0 0 0 0 0 0 0 0 0 0 0 0 0 0 0 0 0 0 0 0 0 0 0 0 0 0
0 0 0 0 0 0 0 0 0 0 0 0 0 0 0 0 0 0 0 0 0 0 0 0 0 0 0 0 0 0 0 0 0 0 0 0 0 0 0 0 0 0 0 0 0
0 0 0 0 6 0 0 0 0 0 0 0 0 0 0 0 0 0 0 0 0 0 0 0 0 0 0 0 0 0 0 0 0 0 0 0 0 0 0 0 0 0 0 0 0
0 3 16 0 0 0 0 0 0 0 0 0 0 0 0 0 0 0 0 0 0 0 0 0 0 0 0 0 0 0 0 0 0 0 0 0 0 0 0 0 0 0 0 0 0
0 1 20 22 1 0 0 0 0 0 0 0 0 0 0 0 0 0 0 0 0 0 0 0 0 0 0 0 0 0 0 0 0 0 0 0 0 0 0 0 0 0 0 0 0
2 0 0 2 1 0 0 0 0 0 0 0 0 0 0 0 0 0 0 0 0 0 0 0 0 0 0 0 0 0 0 0 0 0 0 0 0 0 0 0 0 0 0 0 0
0 0 2 0 0 0 0 0 0 0 0 0 0 0 0 0 0 0 0 0 0 0 0 0 0 0 0 0 0 0 0 0 0 0 0 0 0 0 0 0 0 0 0 0 0
4 0 0 0 0 0 0 0 0 0 0 0 0 0 0 0 0 0 0 0 0 0 0 0 0 0 0 0 0 0 0 0 0 0 0 0 0 0 0 0 0 0 0 0 0
CIN
-0 -0 -0 -0 -0 -0 -0 -0 -0 -0 -0 -0 -0 -0 -0 -0 -0 -0 -0 -0 -0 -0 -0 -0 -0 -0 -0 -0 -0 -0 -0 -0 -0 -0 -0 -0 -0 -0 -0 -0 -0 -0 -0 -0 -0
-0 -0 -0 -0 -0 -0 -0 -0 -0 -0 -0 -0 -0 -0 -0 -0 -0 -0 -0 -0 -0 -0 -0 -0 -0 -0 -0 -0 -0 -0 -0 -0 -0 -0 -0 -0 -0 -0 -0 -0 -0 -0 -0 -0 -0
-0 -0 -0 -0 -0 -0 -0 -0 -0 -0 -0 -0 -0 -0 -0 -0 -0 -0 -0 -0 -0 -0 -0 -0 -0 -0 -0 -0 -0 -0 -0 -0 -0 -0 -0 -0 -0 -0 -0 -0 -0 -0 -0 -0 -0
-0 -0 -0 -0 -0 -0 -0 -0 -0 -0 -0 -0 -0 -0 -0 -0 -0 -0 -0 -0 -0 -0 -0 -0 -0 -0 -0 -241 -0 -0 -0 -0 -0 -0 -0 -0 -0 -0 -0 -0 -0 -0 -0 -0 -0
-0 -0 -0 -0 -0 -0 -0 -0 -0 -0 -0 -0 -0 -0 -0 -0 -0 -0 -0 -0 -0 -0 -0 -0 -0 -0 -0 -0 -0 -0 -0 -0 -0 -0 -0 -0 -0 -0 -0 -0 -0 -0 -0 -0 -0
-0 -0 -0 -0 -0 -0 -0 -0 -0 -0 -0 -0 -0 -0 -0 -0 -0 -0 -0 -0 -0 -0 -0 -0 -0 -0 -0 -0 -0 -0 -0 -0 -0 -0 -0 -0 -0 -0 -0 -0 -0 -0 -0 -0 -0
-0 -0 -0 -0 -0 -0 -0 -0 -0 -0 -0 -0 -0 -0 -0 -0 -0 -0 -0 -0 -0 -0 -0 -0 -0 -0 -0 -0 -0 -0 -0 -0 -0 -0 -0 -0 -0 -0 -0 -0 -0 -0 -0 -0 -0
-0 -0 -0 -0 -0 -0 -0 -0 -0 -0 -0 -0 -0 -0 -0 -0 -0 -0 -0 -0 -0 -0 -0 -0 -0 -0 -0 -0 -0 -0 -0 -0 -0 -0 -0 -0 -0 -0 -0 -0 -0 -0 -0 -0 -0
-0 -0 -0 -0 -0 -0 -0 -0 -0 -0 -0 -0 -0 -0 -0 -0 -0 -0 -0 -0 -0 -0 -0 -0 -0 -0 -0 -0 -0 -0 -0 -0 -0 -0 -0 -0 -0 -0 -0 -0 -0 -0 -0 -0 -0
-0 -0 -0 -0 -0 -0 -0 -0 -0 -0 -0 -0 -0 -0 -0 -0 -0 -0 -0 -0 -0 -0 -0 -0 -0 -0 -0 -0 -0 -0 -0 -0 -0 -0 -0 -0 -0 -0 -0 -0 -0 -0 -0 -0 -0
-0 -0 -0 -0 -0 -0 -0 -0 -0 -0 -0 -0 -0 -0 -0 -0 -0 -0 -0 -0 -0 -0 -0 -0 -0 -0 -0 -0 -0 -0 -0 -0 -0 -0 -0 -0 -0 -0 -0 -0 -0 -0 -0 -0 -0
-0 -0 -0 -0 -0 -0 -0 -0 -0 -0 -0 -0 -0 -0 -0 -0 -0 -0 -0 -0 -0 -0 -0 -0 -0 -0 -0 -0 -0 -0 -0 -0 -0 -0 -0 -0 -0 -0 -0 -0 -0 -0 -0 -0 -0
-0 -0 -0 -0 -0 -0 -0 -0 -0 -0 -0 -0 -0 -0 -0 -0 -0 -0 -0 -0 -0 -0 -0 -0 -0 -0 -0 -0 -0 -0 -0 -0 -0 -0 -0 -0 -0 -0 -0 -0 -0 -0 -0 -0 -0
-0 -0 -0 -0 -0 -0 -0 -0 -0 -0 -0 -0 -0 -0 -0 -0 -0 -0 -0 -0 -0 -0 -0 -0 -0 -0 -0 -0 -0 -0 -0 -0 -0 -0 -0 -0 -0 -0 -0 -0 -0 -0 -0 -0 -0
-0 -0 -0 -0 -0 -0 -0 -0 -0 -0 -0 -0 -0 -0 -0 -0 -0 -0 -0 -0 -0 -0 -0 -0 -0 -0 -0 -0 -0 -0 -0 -0 -0 -0 -0 -0 -0 -0 -0 -0 -0 -0 -0 -0 -0
-0 -0 -0 -0 -0 -0 -0 -0 -0 -0 -0 -0 -0 -0 -0 -0 -0 -0 -0 -0 -0 -0 -0 -0 -0 -0 -0 -0 -0 -0 -0 -0 -0 -0 -0 -0 -0 -0 -0 -0 -0 -0 -0 -0 -0
-0 -0 -0 -0 -0 -0 -0 -0 -0 -0 -0 -0 -0 -0 -0 -0 -0 -0 -0 -0 -0 -0 -0 -0 -0 -0 -0 -0 -0 -0 -0 -0 -0 -0 -0 -0 -0 -0 -0 -0 -0 -0 -0 -0 -0
-0 -0 -0 -0 -0 -0 -0 -0 -0 -0 -0 -0 -0 -0 -0 -0 -0 -0 -0 -0 -0 -0 -0 -0 -0 -0 -0 -0 -0 -0 -0 -0 -0 -0 -0 -0 -0 -0 -0 -0 -0 -0 -0 -0 -0
-0 -0 -0 -0 -0 -0 -0 -0 -0 -0 -0 -0 -0 -0 -0 -0 -0 -0 -0 -0 -0 -0 -0 -0 -0 -0 -0 -0 -0 -0 -0 -0 -0 -0 -0 -0 -0 -0 -0 -0 -0 -0 -0 -0 -0
-0 -0 -0 -0 -0 -0 -0 -0 -0 -0 -0 -0 -0 -0 -0 -0 -0 -0 -0 -0 -0 -0 -0 -0 -0 -0 -0 -0 -0 -0 -0 -0 -0 -0 -0 -0 -0 -0 -0 -0 -0 -0 -0 -0 -0
-0 -0 -0 -0 -0 -0 -0 -0 -0 -0 -0 -0 -0 -0 -0 -0 -0 -0 -0 -0 -0 -0 -0 -0 -0 -0 -0 -0 -0 -0 -0 -0 -0 -0 -0 -0 -0 -0 -0 -0 -0 -0 -0 -0 -0
-0 -0 -0 -0 -1 -0 -0 -0 -0 -0 -0 -0 -0 -0 -0 -0 -0 -0 -0 -0 -0 -0 -0 -0 -0 -0 -0 -0 -0 -0 -0 -0 -0 -0 -0 -0 -0 -0 -0 -0 -0 -0 -0 -0 -0
-0 -0 -0 -0 -0 -0 -0 -0 -0 -0 -0 -0 -0 -0 -0 -0 -0 -0 -0 -0 -0 -0 -0 -0 -0 -0 -0 -0 -0 -0 -0 -0 -0 -0 -0 -0 -0 -0 -0 -0 -0 -0 -0 -0 -0
-0 -14 -0 -0 -0 -0 -0 -0 -0 -0 -0 -0 -0 -0 -0 -0 -0 -0 -0 -0 -0 -0 -0 -0 -0 -0 -0 -0 -0 -0 -0 -0 -0 -0 -0 -0 -0 -0 -0 -0 -0 -0 -0 -0 -0
-0 -0 -1 -0 -0 -0 -0 -0 -0 -0 -0 -0 -0 -0 -0 -0 -0 -0 -0 -0 -0 -0 -0 -0 -0 -0 -0 -0 -0 -0 -0 -0 -0 -0 -0 -0 -0 -0 -0 -0 -0 -0 -0 -0 -0
-0 -0 -0 -0 -0 -0 -0 -0 -0 -0 -0 -0 -0 -0 -0 -0 -0 -0 -0 -0 -0 -0 -0 -0 -0 -0 -0 -0 -0 -0 -0 -0 -0 -0 -0 -0 -0 -0 -0 -0 -0 -0 -0 -0 -0
-5 -0 -0 -0 -0 -0 -0 -0 -0 -0 -0 -0 -0 -0 -0 -0 -0 -0 -0 -0 -0 -0 -0 -0 -0 -0 -0 -0 -0 -0 -0 -0 -0 -0 -0 -0 -0 -0 -0 -0 -0 -0 -0 -0 -0
Wind_Speed
10 12 13 14 15 16 17 18 18 18 16 18 18 18 19 19 20 6 7 6 4 9 6 7 5 5 3 5 5 6 7 5 7 7 7 6 5 4 4 4 3 2 4 3 5
11 13 13 15 14 15 18 19 18 18 19 18 17 17 16 15 4 5 5 5 7 6 4 6 8 9 4 5 5 7 5 5 4 5 7 7 6 6 4 1 5 3 3 1 2
11 12 13 14 14 15 17 18 19 19 20 19 17 18 17 7 4 6 9 12 8 4 1 2 0 3 7 5 6 5 5 5 4 10 11 8 6 3 8 3 2 6 4 3 4
9 11 13 14 15 15 16 18 19 19 20 20 18 19 22 1 2 6 15 19 14 7 1 7 6 6 7 7 6 10 6 6 7 8 7 8 5 4 2 3 6 8 5 3 5
10 10 12 14 15 16 16 17 19 19 19 21 17 18 6 7 4 9 17 15 10 2 2 6 12 5 10 10 23 17 8 9 13 12 7 10 6 4 5 4 4 5 5 5 7
10 11 12 13 14 16 17 17 19 19 19 19 15 18 2 6 5 11 16 9 3 7 6 8 12 12 10 4 7 9 18 11 12 10 6 11 3 4 4 4 4 3 6 7 9
9 11 13 14 15 16 17 18 20 20 19 18 11 4 5 2 6 11 10 6 5 13 15 6 5 10 5 17 17 20 22 11 8 4 6 11 8 3 4 7 8 7 6 7 8
10 10 12 14 16 17 18 19 21 21 17 15 10 1 0 6 7 11 11 11 9 9 10 10 12 11 7 8 7 9 5 6 6 10 8 5 4 6 7 9 7 8 7 7 5
8 10 12 14 16 18 19 22 23 16 13 12 2 3 3 9 7 8 5 5 5 7 8 8 9 6 8 13 6 3 3 3 3 13 6 3 5 10 9 8 8 8 7 7 6
8 10 12 14 15 18 22 19 14 11 4 1 2 7 7 3 5 7 7 7 6 5 7 7 7 7 4 3 6 6 6 4 6 10 4 6 8 10 10 10 11 9 9 9 9
9 9 11 14 15 15 13 7 8 8 8 1 3 3 0 5 2 7 5 5 5 5 3 6 10 6 20 8 3 6 6 6 4 6 6 8 7 16 11 8 10 10 10 10 10
9 9 11 13 15 16 1 4 4 3 5 5 2 2 1 1 5 10 7 6 4 2 3 6 3 5 7 11 9 3 7 4 1 2 5 4 7 11 9 9 14 15 11 11 7
9 9 10 12 15 4 2 2 2 2 2 3 3 0 2 3 2 4 5 3 4 4 2 7 3 5 4 4 8 3 8 7 7 4 2 7 2 8 8 5 10 11 15 11 15
9 9 7 14 3 5 4 6 4 4 4 3 3 2 1 2 3 2 1 2 3 5 3 6 5 3 4 4 2 5 2 3 8 5 4 6 6 7 13 15 12 13 11 13 13
10 9 4 4 4 2 3 5 5 5 4 4 2 2 2 2 4 4 3 5 3 2 5 2 4 5 6 1 1 4 3 5 4 3 2 1 2 7 12 14 17 14 14 15 17
12 9 2 2 1 7 7 5 6 11 6 2 3 3 4 2 1 2 4 4 2 6 7 3 1 2 1 3 3 1 5 8 5 3 3 6 8 6 7 19 16 11 16 17 18
13 9 4 1 4 6 4 5 8 7 4 4 4 4 5 2 2 3 2 2 4 6 1 3 3 3 1 5 6 7 7 5 5 5 7 2 1 12 10 7 19 23 18 18 18
14 8 4 5 3 7 4 7 6 5 6 3 4 6 4 7 2 2 4 1 1 3 3 5 1 3 5 3 5 1 6 7 5 3 5 6 6 8 6 12 8 16 14 13 15
6 1 2 4 5 4 6 4 11 8 6 7 4 4 4 2 7 3 5 5 5 6 5 4 1 1 5 4 3 3 2 3 5 3 1 5 7 6 4 5 4 9 10 13 15
1 1 3 4 6 5 5 7 5 5 5 5 6 6 7 7 6 5 4 4 4 4 4 3 4 4 2 2 3 2 3 3 4 2 5 5 6 6 4 4 2 5 10 11 12
1 2 2 3 3 5 6 8 6 5 6 6 6 6 6 6 6 6 4 3 1 3 2 5 6 4 3 3 6 1 1 4 4 5 5 2 7 5 10 7 8 7 8 11 14
2 3 2 6 5 3 4 7 5 6 2 3 4 3 5 3 5 7 8 3 4 5 5 1 6 4 5 2 1 2 5 5 7 5 3 3 8 5 6 5 4 6 8 10 12
3 2 1 3 8 3 5 5 2 5 5 5 4 3 3 7 4 3 3 2 4 4 7 5 1 3 7 6 5 3 2 4 3 3 5 6 8 3 5 8 5 4 7 8 11
2 3 3 2 0 6 7 8 4 4 5 5 5 4 3 4 2 6 2 3 6 3 6 7 4 7 9 5 5 1 3 1 5 3 4 7 4 5 7 2 1 7 8 11 13
4 5 5 7 10 8 12 9 8 4 4 7 2 5 6 4 3 4 3 2 4 2 3 5 5 2 5 4 4 5 5 7 7 8 8 12 7 11 4 1 6 7 11 15 15
2 4 2 1 12 15 11 9 19 11 8 6 8 8 6 6 7 8 7 5 5 0 3 2 2 2 3 4 8 5 9 9 10 8 9 12 18 13 10 7 8 11 14 14 14
1 4 1 4 15 10 14 15 15 9 5 11 10 7 6 7 5 2 4 5 9 8 4 5 6 4 4 3 3 5 11 15 7 6 6 8 11 4 6 7 8 12 13 15 14
Wind_Direction
352 354 350 350 347 342 337 333 334 331 334 325 328 324 324 333 320 8 28 238 277 310 304 316 27 37 91 71 50 112 77 146 144 146 151 136 96 24 24 84 43 42 120 177 259
349 349 350 345 343 343 336 330 330 331 327 323 326 322 319 333 325 333 260 307 273 247 336 34 319 26 44 39 34 68 89 142 130 128 127 115 104 137 105 351 40 44 61 232 96
344 344 346 344 337 343 334 329 325 329 324 320 325 322 317 318 31 293 321 336 240 195 250 181 242 81 58 44 7 25 91 93 71 103 116 123 124 119 125 31 199 173 184 180 85
335 338 338 341 335 337 331 326 325 326 321 317 325 324 321 223 76 280 331 327 312 162 273 19 42 52 68 51 45 93 56 90 114 89 102 129 115 76 23 182 151 172 169 164 120
329 335 331 336 335 328 327 326 322 321 318 314 327 325 343 34 304 289 317 310 311 309 184 121 72 87 88 92 76 82 90 77 90 87 81 81 57 97 68 108 123 155 166 145 123
322 331 329 332 330 324 323 324 318 317 315 312 328 324 24 58 287 311 318 325 348 56 68 78 99 103 85 75 64 116 99 88 94 90 108 106 117 75 251 161 154 219 178 127 124
316 326 327 327 324 323 322 321 316 311 309 305 327 329 46 228 325 318 344 336 41 96 95 78 116 88 117 83 101 109 102 89 116 129 136 126 23 86 189 181 199 164 138 120 121
311 324 321 323 322 324 320 318 310 304 300 296 319 222 219 275 306 1 344 7 36 51 85 92 81 92 74 116 69 93 55 118 220 149 188 92 201 222 200 166 160 154 144 133 137
305 316 317 319 322 323 321 315 303 294 283 290 348 77 324 318 10 330 27 354 357 52 56 67 69 83 49 111 72 356 157 163 177 204 137 157 166 224 195 167 172 172 153 149 130
298 309 313 316 326 326 322 303 293 318 357 163 304 52 345 301 308 330 332 5 30 40 38 53 64 82 49 122 166 174 127 224 195 207 150 148 199 188 197 169 176 180 171 168 170
294 303 311 316 325 329 343 3 16 350 31 94 299 146 284 300 3 353 342 356 31 47 81 5 107 143 191 196 99 154 143 153 241 203 137 195 175 189 191 179 178 189 185 186 181
291 297 307 318 319 319 312 59 97 249 328 317 344 41 318 281 54 342 14 60 57 41 79 34 149 180 196 238 269 104 131 209 336 195 124 168 216 196 194 200 188 189 196 187 181
292 290 301 315 318 342 332 6 322 37 270 296 306 269 279 43 103 331 37 323 66 51 152 139 218 291 109 69 66 81 162 181 169 158 95 132 313 215 236 212 212 201 195 184 177
287 280 305 317 341 303 325 320 346 76 56 255 271 241 267 110 47 276 42 91 37 128 113 89 344 346 79 93 90 110 319 176 124 101 211 156 266 209 211 218 210 206 189 183 184
288 278 289 21 288 340 284 321 342 64 50 258 147 281 275 131 146 341 319 39 84 38 94 252 16 16 73 83 96 162 139 145 141 111 44 263 29 265 165 220 222 213 198 190 188
316 260 263 166 266 255 307 352 46 47 258 195 135 172 94 36 86 73 24 45 127 68 31 130 41 64 222 42 57 105 54 41 62 67 344 218 166 265 187 217 211 212 203 191 189
320 250 178 321 222 338 333 45 49 128 278 209 169 145 135 150 52 93 67 57 133 100 1 36 357 336 351 68 5 67 58 7 357 4 227 19 214 246 228 228 204 201 200 193 185
305 221 227 233 301 17 36 56 101 228 213 222 133 127 185 144 153 169 104 268 211 103 121 149 287 356 333 80 157 55 133 150 206 218 278 303 241 252 264 235 211 205 199 177 176
163 168 268 243 220 86 76 83 201 204 186 139 80 143 195 85 121 116 197 206 219 170 143 126 344 27 38 14 72 264 122 168 118 4 36 259 292 329 37 65 141 192 160 174 175
247 131 252 225 149 77 88 222 220 211 139 107 152 164 194 179 122 145 199 230 185 192 139 152 96 360 346 28 24 61 155 75 358 198 255 285 273 242 263 196 113 163 185 174 164
194 147 227 137 109 58 168 223 234 218 139 133 178 159 211 166 143 165 210 0 25 103 143 113 110 285 23 208 191 89 233 59 117 140 177 274 267 221 275 210 184 194 182 166 165
138 216 75 190 138 158 181 197 229 175 115 132 124 120 157 184 144 176 186 196 314 157 111 88 126 165 196 261 321 208 208 151 125 248 238 156 275 325 359 284 216 190 178 168 152
176 141 98 328 151 203 264 230 255 168 147 155 138 145 156 160 148 174 135 245 276 99 148 171 16 53 346 353 355 228 27 87 109 84 212 136 262 298 18 28 40 110 110 112 108
104 129 131 169 320 201 197 203 218 217 160 133 143 114 116 131 97 173 124 3 353 79 117 100 145 163 186 196 148 204 223 166 132 137 191 229 273 281 337 250 91 85 101 108 110
199 224 160 173 196 197 205 181 187 202 183 138 84 159 154 143 120 144 114 73 10 348 77 102 170 143 228 222 190 195 193 189 192 214 183 252 223 254 162 163 219 143 126 120 121
190 152 180 152 168 196 194 208 189 214 157 202 144 172 172 143 170 192 140 182 190 252 123 56 216 153 295 241 224 237 239 216 221 245 247 262 272 265 271 293 163 159 139 131 129
244 265 66 167 174 179 203 201 198 164 224 167 158 141 167 195 153 218 175 160 161 143 137 134 124 99 256 338 11 330 235 218 201 204 175 211 243 267 255 226 162 150 145 137 131